Regional Weather Roundup
Issued by NWS

Home | Current Version | Previous Version | Text Only | Print | Product List | Glossary On
Versions: 1 2 3 4 5 6 7 8 9 10 11 12 13 14 15 16 17 18 19 20 21 22 23 24 25 26 27 28 29 30 31 32 33 34 35 36 37 38 39 40 41 42 43 44 45 46 47 48 49 50
000
ASUS43 KDTX 251410
RWRMI
MICHIGAN HOURLY REGIONAL WEATHER ROUNDUP
NATIONAL WEATHER SERVICE DETROIT/PONTIAC MI
1000 AM EDT SAT APR 25 2015

NOTE: "FAIR" INDICATES FEW OR NO CLOUDS BELOW 12,000 FEET WITH NO
SIGNIFICANT WEATHER AND/OR OBSTRUCTION TO VISIBILITY.

MIZ047>049-052>055-059>063-066>070-074>076-081>083-251500-
SOUTHEAST LOWER MICHIGAN

CITY           SKY/WX    TMP DP  RH WIND       PRES   REMARKS
ADRIAN         CLOUDY    43  39  86 SE12      29.91S
ALMA           CLOUDY    40  26  56 NE9       29.94S
ANN ARBOR      CLOUDY    44  35  70 E9        29.92S
BAD AXE        MOSUNNY   40  19  43 E10       29.99S
DETROIT CITY   CLOUDY    43  30  60 E10       29.95F
DETROIT        CLOUDY    45  33  63 E9        29.94F
FLINT          CLOUDY    44  24  45 E7        29.95S
GROSSE ILE     CLOUDY    45  36  70 E8        29.92F
HILLSDALE      CLOUDY    43  41  94 E12       29.87F
HOWELL         CLOUDY    44  33  65 E9        29.91F

CITY           SKY/WX    TMP DP  RH WIND       PRES   REMARKS
JACKSON        CLOUDY    42  37  82 E9        29.89F
LAMBERTVILLE   CLOUDY    45  37  76 E7        29.92R
LANSING        CLOUDY    44  34  67 E8        29.92S
LAPEER         NOT AVBL
MASON          CLOUDY    42  34  72 E8        29.91S
MONROE         CLOUDY    45  37  76 E9        29.91F
MT. CLEMENS    CLOUDY    40  25  55 NE9       29.93S
PONTIAC        CLOUDY    41  26  55 E7        29.93S
PORT HOPE        N/A     37  24  59 E8        29.99R
PORT HURON     CLOUDY    39  25  56 NE3       29.98S
TRI CITIES     PTSUNNY   41  24  51 E9        29.97S
YPSILANTI      CLOUDY    48  37  65 E10       29.93S
$$
MIZ043>046-050>051-056>058-064>065-071>073-077>080-251500-
SOUTHWEST LOWER MICHIGAN

CITY           SKY/WX    TMP DP  RH WIND       PRES   REMARKS
BATTLE CREEK   CLOUDY    43  38  82 E7        29.88F
BENTON HARBOR  CLOUDY    44  37  76 E10       29.83S
BIG RAPIDS     CLOUDY    39  25  56 E6        29.92S
COLDWATER      CLOUDY    42  37  83 E8G16     29.86F
HOLLAND        CLOUDY    44  36  73 E12       29.88F
GRAND RAPIDS   CLOUDY    41  30  65 NE10G22   29.90S
KALAMAZOO      CLOUDY    44  38  79 E7        29.87S
MARSHALL       CLOUDY    41  38  88 E7        29.87F
MUSKEGON       CLOUDY    41  31  67 E13       29.90S
$$
MIZ016>042-251500-
NORTHERN LOWER MICHIGAN

CITY           SKY/WX    TMP DP  RH WIND       PRES   REMARKS
ALPENA         SUNNY     40  23  50 N5        30.01F
BEAVER ISLAND  SUNNY     37  27  66 E8        30.01R
BELLAIRE       SUNNY     43  19  38 CALM      29.99S
CADILLAC       CLOUDY    40  19  42 E9        29.93S
CHARLEVOIX     SUNNY     39  19  43 E7        30.02S
FRANKFORT      CLOUDY    44  15  32 E9        29.95F
GAYLORD        SUNNY     38  15  39 E5        29.96F
GRAYLING       SUNNY     40  17  40 E6        29.97F
HARBOR SPRINGS SUNNY     38  21  50 E8        30.00S
HOUGHTON LAKE  MOSUNNY   41  18  39 E10       29.96F
MANISTEE       PTSUNNY   41  19  42 E12       29.95S
OSCODA         SUNNY     40  24  51 E3        30.00R
PELLSTON       SUNNY     38  23  55 E7        30.01S
TRAVERSE CITY  PTSUNNY   40  23  50 N9        29.97S
$$
MIZ007>008-015-251500-
EASTERN UPPER MICHIGAN

CITY           SKY/WX    TMP DP  RH WIND       PRES   REMARKS
KINROSS        SUNNY     39  21  48 E8        30.01F
MACKINAC ISLAN SUNNY     35  26  71 E10       30.01S
NEWBERRY       SUNNY     36  25  64 NE9       30.00F
S. S. MARIE    SUNNY     42  21  43 NE7       30.01F
$$
MIZ004>006-011>014-085-251500-
CENTRAL UPPER MICHIGAN

CITY           SKY/WX    TMP DP  RH WIND       PRES   REMARKS
MANISTIQUE     MOSUNNY   39  23  53 E6        30.00S
ESCANABA       CLOUDY    36  18  48 NE7       30.01S
MENOMINEE      CLOUDY    37  25  60 E17       29.98S
SAWYER-GWINN   SUNNY     36  16  44 NE13      29.99S
$$
MIZ001>003-009>011-084-251500-
WESTERN UPPER MICHIGAN

CITY           SKY/WX    TMP DP  RH WIND       PRES   REMARKS
IRON MOUNTAIN  CLOUDY    38  20  48 VRB3      29.98R
HOUGHTON       MOSUNNY   37  17  44 E8        30.02F
COPPER HARBOR    N/A     35  27  72 E8        30.06S
IRONWOOD       MOSUNNY   45  25  45 E7        29.93S
$$

ABBREVIATIONS USED IN REMARKS
   TC - TEMPERATURE IN CELSIUS
  WCI - WIND CHILL INDEX
   HX - HEAT INDEX
  VSB - VISIBILITY




USA.gov is the U.S. government's official web portal to all federal, state and local government web resources and services.